Time,TemperatureF,DewpointF,PressureIn,WindDirection,WindDirectionDegrees,WindSpeedMPH,WindSpeedGustMPH,Humidity,HourlyPrecipIn,Conditions,Clouds,dailyrainin,SoftwareType,DateUTC
2013-06-25 00:05:00,72.7,68.9,29.80,SW,214,0.0,8.0,88,0.00,,,0.00,Wunderground v.1.15,2013-06-25 05:05:00,
2013-06-25 00:10:00,72.9,68.8,29.80,SW,218,0.0,8.0,87,0.00,,,0.00,Wunderground v.1.15,2013-06-25 05:10:00,
2013-06-25 00:20:00,73.1,69.0,29.80,SW,225,0.0,8.0,87,0.00,,,0.00,Wunderground v.1.15,2013-06-25 05:20:00,
2013-06-25 00:30:00,73.2,68.8,29.80,SW,230,0.0,8.0,86,0.00,,,0.00,Wunderground v.1.15,2013-06-25 05:30:00,
2013-06-25 00:35:00,73.3,68.9,29.80,SW,222,0.0,8.0,86,0.00,,,0.00,Wunderground v.1.15,2013-06-25 05:35:00,
2013-06-25 00:40:00,73.4,68.6,29.80,SW,225,0.0,8.0,85,0.00,,,0.00,Wunderground v.1.15,2013-06-25 05:40:00,
2013-06-25 00:45:00,73.4,68.6,29.80,SW,233,0.0,8.0,85,0.00,,,0.00,Wunderground v.1.15,2013-06-25 05:45:00,
2013-06-25 00:50:00,73.3,68.5,29.80,West,269,0.0,8.0,85,0.00,,,0.00,Wunderground v.1.15,2013-06-25 05:50:00,
2013-06-25 00:55:00,73.2,68.4,29.80,WSW,237,0.0,8.0,85,0.00,,,0.00,Wunderground v.1.15,2013-06-25 05:55:00,
2013-06-25 01:00:00,73.1,68.3,29.80,SW,222,0.0,8.0,85,0.00,,,0.00,Wunderground v.1.15,2013-06-25 06:00:00,
2013-06-25 01:05:00,73.1,68.3,29.79,WSW,243,0.0,8.0,85,0.00,,,0.00,Wunderground v.1.15,2013-06-25 06:05:00,
2013-06-25 01:10:00,73.0,68.2,29.79,WSW,258,0.0,8.0,85,0.00,,,0.00,Wunderground v.1.15,2013-06-25 06:10:00,
2013-06-25 01:15:00,73.1,68.3,29.79,SW,234,0.0,8.0,85,0.00,,,0.00,Wunderground v.1.15,2013-06-25 06:15:00,
2013-06-25 01:20:00,73.1,68.3,29.80,West,264,0.0,8.0,85,0.00,,,0.00,Wunderground v.1.15,2013-06-25 06:20:00,
2013-06-25 01:25:00,73.0,68.2,29.80,WSW,251,0.0,8.0,85,0.00,,,0.00,Wunderground v.1.15,2013-06-25 06:25:00,
2013-06-25 01:30:00,73.0,68.2,29.80,WSW,256,0.0,8.0,85,0.00,,,0.00,Wunderground v.1.15,2013-06-25 06:30:00,
2013-06-25 01:35:00,73.1,68.3,29.80,WSW,255,0.0,8.0,85,0.00,,,0.00,Wunderground v.1.15,2013-06-25 06:35:00,
2013-06-25 01:40:00,73.0,68.6,29.80,WNW,289,0.0,8.0,86,0.00,,,0.00,Wunderground v.1.15,2013-06-25 06:40:00,
2013-06-25 01:45:00,73.0,68.6,29.81,West,272,0.0,8.0,86,0.00,,,0.00,Wunderground v.1.15,2013-06-25 06:45:00,
2013-06-25 01:50:00,72.9,68.5,29.81,West,273,0.0,8.0,86,0.00,,,0.00,Wunderground v.1.15,2013-06-25 06:50:00,
2013-06-25 01:55:00,72.8,68.4,29.81,WSW,244,0.0,8.0,86,0.00,,,0.00,Wunderground v.1.15,2013-06-25 06:55:00,
2013-06-25 02:00:00,72.6,68.5,29.82,WSW,243,0.0,8.0,87,0.41,,,0.02,Wunderground v.1.15,2013-06-25 07:00:00,
2013-06-25 02:05:00,72.2,68.4,29.81,SW,225,0.0,8.0,88,0.18,,,0.04,Wunderground v.1.15,2013-06-25 07:05:00,
2013-06-25 02:10:00,71.9,68.5,29.81,South,190,0.0,8.0,89,0.09,,,0.04,Wunderground v.1.15,2013-06-25 07:10:00,
2013-06-25 02:15:00,71.7,68.3,29.81,SSW,207,0.0,8.0,89,0.05,,,0.04,Wunderground v.1.15,2013-06-25 07:15:00,
2013-06-25 02:20:00,71.5,68.1,29.81,South,184,0.0,8.0,89,0.04,,,0.04,Wunderground v.1.15,2013-06-25 07:20:00,
2013-06-25 02:25:00,71.3,68.2,29.81,SSW,195,0.0,8.0,90,0.00,,,0.04,Wunderground v.1.15,2013-06-25 07:25:00,
2013-06-25 02:30:00,71.2,68.1,29.80,SSW,194,0.0,8.0,90,0.00,,,0.04,Wunderground v.1.15,2013-06-25 07:30:00,
2013-06-25 02:35:00,71.1,68.3,29.81,SSW,206,0.0,8.0,91,0.00,,,0.04,Wunderground v.1.15,2013-06-25 07:35:00,
2013-06-25 02:40:00,71.0,68.2,29.81,SW,226,0.0,8.0,91,0.00,,,0.04,Wunderground v.1.15,2013-06-25 07:40:00,
2013-06-25 02:45:00,70.8,68.0,29.81,SW,218,0.0,8.0,91,0.00,,,0.04,Wunderground v.1.15,2013-06-25 07:45:00,
2013-06-25 02:50:00,70.8,68.4,29.80,SW,233,0.0,8.0,92,0.00,,,0.04,Wunderground v.1.15,2013-06-25 07:50:00,
2013-06-25 03:00:00,70.7,68.3,29.79,SSW,212,0.0,8.0,92,0.00,,,0.04,Wunderground v.1.15,2013-06-25 08:00:00,
2013-06-25 03:05:00,70.7,68.3,29.79,SSW,209,0.0,8.0,92,0.00,,,0.04,Wunderground v.1.15,2013-06-25 08:05:00,
2013-06-25 03:15:00,70.6,68.5,29.78,SW,233,0.0,8.0,93,0.00,,,0.04,Wunderground v.1.15,2013-06-25 08:15:00,
2013-06-25 03:20:00,70.6,68.2,29.78,SW,214,0.0,8.0,92,0.00,,,0.04,Wunderground v.1.15,2013-06-25 08:20:00,
2013-06-25 03:25:00,70.6,68.2,29.78,WSW,240,0.0,8.0,92,0.00,,,0.04,Wunderground v.1.15,2013-06-25 08:25:00,
2013-06-25 03:30:00,70.6,68.2,29.79,SW,227,0.0,8.0,92,0.00,,,0.04,Wunderground v.1.15,2013-06-25 08:30:00,
2013-06-25 03:40:00,70.6,68.5,29.80,West,261,0.0,8.0,93,0.00,,,0.04,Wunderground v.1.15,2013-06-25 08:40:00,
2013-06-25 03:50:00,70.6,68.2,29.79,WSW,257,0.0,8.0,92,0.00,,,0.04,Wunderground v.1.15,2013-06-25 08:50:00,
2013-06-25 03:55:00,70.6,68.5,29.79,WSW,252,0.0,8.0,93,0.00,,,0.04,Wunderground v.1.15,2013-06-25 08:55:00,
2013-06-25 04:00:00,70.6,68.2,29.79,WSW,238,0.0,8.0,92,0.00,,,0.04,Wunderground v.1.15,2013-06-25 09:00:00,
2013-06-25 04:05:00,70.6,68.2,29.80,WSW,257,0.0,8.0,92,0.00,,,0.04,Wunderground v.1.15,2013-06-25 09:05:00,
2013-06-25 04:10:00,70.6,68.2,29.80,WSW,240,0.0,8.0,92,0.00,,,0.04,Wunderground v.1.15,2013-06-25 09:10:00,
2013-06-25 04:15:00,70.6,68.5,29.80,SW,229,0.0,8.0,93,0.00,,,0.04,Wunderground v.1.15,2013-06-25 09:15:00,
2013-06-25 04:20:00,70.5,68.1,29.80,SSW,196,0.0,8.0,92,0.00,,,0.04,Wunderground v.1.15,2013-06-25 09:20:00,
2013-06-25 04:25:00,70.4,68.3,29.80,South,190,0.0,8.0,93,0.00,,,0.04,Wunderground v.1.15,2013-06-25 09:25:00,
2013-06-25 04:30:00,70.3,68.2,29.80,SSW,196,0.0,8.0,93,0.00,,,0.04,Wunderground v.1.15,2013-06-25 09:30:00,
2013-06-25 04:35:00,70.3,68.2,29.81,South,190,0.0,8.0,93,0.00,,,0.04,Wunderground v.1.15,2013-06-25 09:35:00,
2013-06-25 04:45:00,70.3,68.2,29.80,SSW,195,0.0,8.0,93,0.00,,,0.04,Wunderground v.1.15,2013-06-25 09:45:00,
2013-06-25 04:50:00,70.3,68.2,29.80,SW,225,0.0,8.0,93,0.00,,,0.04,Wunderground v.1.15,2013-06-25 09:50:00,
2013-06-25 04:55:00,70.3,68.2,29.81,SSW,193,0.0,8.0,93,0.00,,,0.04,Wunderground v.1.15,2013-06-25 09:55:00,
2013-06-25 05:00:00,70.2,68.1,29.81,South,182,0.0,8.0,93,0.00,,,0.04,Wunderground v.1.15,2013-06-25 10:00:00,
2013-06-25 05:10:00,70.2,68.4,29.81,South,169,0.0,8.0,94,0.00,,,0.04,Wunderground v.1.15,2013-06-25 10:10:00,
2013-06-25 05:15:00,70.2,68.4,29.81,South,169,0.0,8.0,94,0.00,,,0.04,Wunderground v.1.15,2013-06-25 10:15:00,
2013-06-25 05:25:00,70.1,68.3,29.81,SW,221,0.0,8.0,94,0.00,,,0.04,Wunderground v.1.15,2013-06-25 10:25:00,
2013-06-25 05:30:00,70.0,68.2,29.81,SW,223,0.0,8.0,94,0.00,,,0.04,Wunderground v.1.15,2013-06-25 10:30:00,
2013-06-25 05:35:00,70.0,68.2,29.81,SW,227,0.0,8.0,94,0.00,,,0.04,Wunderground v.1.15,2013-06-25 10:35:00,
2013-06-25 05:40:00,70.0,68.2,29.81,WSW,242,0.0,8.0,94,0.00,,,0.04,Wunderground v.1.15,2013-06-25 10:40:00,
2013-06-25 05:45:00,69.9,68.1,29.81,SSW,210,0.0,8.0,94,0.00,,,0.04,Wunderground v.1.15,2013-06-25 10:45:00,
2013-06-25 05:50:00,69.8,68.0,29.81,SSW,213,0.0,8.0,94,0.00,,,0.04,Wunderground v.1.15,2013-06-25 10:50:00,
2013-06-25 05:55:00,69.8,68.0,29.81,WSW,246,0.0,8.0,94,0.00,,,0.04,Wunderground v.1.15,2013-06-25 10:55:00,
2013-06-25 06:00:00,69.8,68.0,29.80,West,267,0.0,8.0,94,0.00,,,0.04,Wunderground v.1.15,2013-06-25 11:00:00,
2013-06-25 06:05:00,69.8,67.7,29.80,WSW,248,0.0,8.0,93,0.00,,,0.04,Wunderground v.1.15,2013-06-25 11:05:00,
2013-06-25 06:10:00,69.8,67.7,29.80,West,275,0.0,8.0,93,0.00,,,0.04,Wunderground v.1.15,2013-06-25 11:10:00,
2013-06-25 06:15:00,69.8,67.7,29.80,West,275,0.0,8.0,93,0.00,,,0.04,Wunderground v.1.15,2013-06-25 11:15:00,
2013-06-25 06:20:00,69.8,67.7,29.80,West,273,0.0,8.0,93,0.00,,,0.04,Wunderground v.1.15,2013-06-25 11:20:00,
2013-06-25 06:25:00,69.8,67.7,29.80,West,269,0.0,8.0,93,0.00,,,0.04,Wunderground v.1.15,2013-06-25 11:25:00,
2013-06-25 06:30:00,69.9,67.8,29.80,West,265,0.0,8.0,93,0.00,,,0.04,Wunderground v.1.15,2013-06-25 11:30:00,
2013-06-25 06:35:00,70.0,67.9,29.80,West,277,0.0,8.0,93,0.00,,,0.04,Wunderground v.1.15,2013-06-25 11:35:00,
2013-06-25 06:40:00,70.0,67.9,29.80,NW,304,0.0,8.0,93,0.00,,,0.04,Wunderground v.1.15,2013-06-25 11:40:00,
2013-06-25 06:45:00,70.2,68.1,29.80,West,263,0.0,8.0,93,0.00,,,0.04,Wunderground v.1.15,2013-06-25 11:45:00,
2013-06-25 06:50:00,70.3,68.2,29.80,West,272,0.0,8.0,93,0.00,,,0.04,Wunderground v.1.15,2013-06-25 11:50:00,
2013-06-25 06:55:00,70.4,68.0,29.80,West,278,0.0,8.0,92,0.00,,,0.04,Wunderground v.1.15,2013-06-25 11:55:00,
2013-06-25 07:00:00,70.5,68.4,29.80,WSW,257,0.0,8.0,93,0.00,,,0.04,Wunderground v.1.15,2013-06-25 12:00:00,
2013-06-25 07:05:00,70.6,68.2,29.80,WNW,295,0.0,8.0,92,0.00,,,0.04,Wunderground v.1.15,2013-06-25 12:05:00,
2013-06-25 07:10:00,70.6,68.2,29.79,WNW,282,0.0,8.0,92,0.00,,,0.04,Wunderground v.1.15,2013-06-25 12:10:00,
2013-06-25 07:15:00,70.7,68.3,29.78,WSW,258,0.0,8.0,92,0.00,,,0.04,Wunderground v.1.15,2013-06-25 12:15:00,
2013-06-25 07:20:00,70.9,68.5,29.78,WSW,248,0.0,8.0,92,0.00,,,0.04,Wunderground v.1.15,2013-06-25 12:20:00,
2013-06-25 07:25:00,71.0,68.6,29.78,WSW,241,0.0,8.0,92,0.00,,,0.04,Wunderground v.1.15,2013-06-25 12:25:00,
2013-06-25 07:30:00,71.0,68.6,29.77,WSW,244,0.0,8.0,92,0.00,,,0.04,Wunderground v.1.15,2013-06-25 12:30:00,
2013-06-25 07:35:00,71.0,68.6,29.77,West,269,0.0,8.0,92,0.00,,,0.04,Wunderground v.1.15,2013-06-25 12:35:00,
2013-06-25 07:40:00,71.2,68.8,29.77,West,266,0.0,8.0,92,0.00,,,0.04,Wunderground v.1.15,2013-06-25 12:40:00,
2013-06-25 07:45:00,71.3,68.5,29.77,WNW,288,0.0,8.0,91,0.00,,,0.04,Wunderground v.1.15,2013-06-25 12:45:00,
2013-06-25 07:50:00,71.9,69.1,29.78,West,270,1.0,8.0,91,0.00,,,0.04,Wunderground v.1.15,2013-06-25 12:50:00,
2013-06-25 07:55:00,72.2,69.1,29.79,WNW,295,2.0,8.0,90,0.00,,,0.04,Wunderground v.1.15,2013-06-25 12:55:00,
2013-06-25 08:00:00,72.1,68.7,29.79,West,276,3.0,8.0,89,0.00,,,0.04,Wunderground v.1.15,2013-06-25 13:00:00,
2013-06-25 08:05:00,72.2,68.8,29.79,West,280,3.0,8.0,89,0.00,,,0.04,Wunderground v.1.15,2013-06-25 13:05:00,
2013-06-25 08:10:00,72.4,69.0,29.79,West,262,2.0,2.0,89,0.00,,,0.04,Wunderground v.1.15,2013-06-25 13:10:00,
2013-06-25 08:15:00,72.7,68.9,29.79,West,264,0.0,8.0,88,0.00,,,0.04,Wunderground v.1.15,2013-06-25 13:15:00,
2013-06-25 08:20:00,73.0,69.2,29.79,WNW,289,0.0,8.0,88,0.00,,,0.04,Wunderground v.1.15,2013-06-25 13:20:00,
2013-06-25 08:25:00,73.4,69.3,29.79,West,267,0.0,8.0,87,0.00,,,0.04,Wunderground v.1.15,2013-06-25 13:25:00,
2013-06-25 08:35:00,73.9,69.8,29.80,West,263,0.0,8.0,87,0.00,,,0.04,Wunderground v.1.15,2013-06-25 13:35:00,
2013-06-25 08:40:00,74.2,69.4,29.81,West,268,1.0,8.0,85,0.00,,,0.04,Wunderground v.1.15,2013-06-25 13:40:00,
2013-06-25 08:45:00,74.4,69.6,29.81,WSW,250,1.0,8.0,85,0.00,,,0.04,Wunderground v.1.15,2013-06-25 13:45:00,
2013-06-25 08:50:00,74.4,69.2,29.82,WSW,245,0.0,8.0,84,0.00,,,0.04,Wunderground v.1.15,2013-06-25 13:50:00,
2013-06-25 09:00:00,74.2,69.1,29.82,WSW,244,0.0,8.0,84,0.00,,,0.04,Wunderground v.1.15,2013-06-25 14:00:00,
2013-06-25 09:05:00,74.0,68.9,29.83,WSW,257,0.0,8.0,84,0.00,,,0.04,Wunderground v.1.15,2013-06-25 14:05:00,
2013-06-25 09:15:00,73.9,69.1,29.82,WSW,239,0.0,8.0,85,0.00,,,0.04,Wunderground v.1.15,2013-06-25 14:15:00,
2013-06-25 09:20:00,74.1,69.3,29.82,West,269,0.0,8.0,85,0.00,,,0.04,Wunderground v.1.15,2013-06-25 14:20:00,
2013-06-25 09:25:00,74.2,68.7,29.81,SW,226,0.0,8.0,83,0.00,,,0.04,Wunderground v.1.15,2013-06-25 14:25:00,
2013-06-25 09:30:00,74.4,68.9,29.81,SW,233,0.0,8.0,83,0.00,,,0.04,Wunderground v.1.15,2013-06-25 14:30:00,
2013-06-25 09:35:00,74.8,69.3,29.82,SW,232,0.0,8.0,83,0.00,,,0.04,Wunderground v.1.15,2013-06-25 14:35:00,
2013-06-25 09:40:00,74.8,68.9,29.82,WSW,238,0.0,8.0,82,0.00,,,0.04,Wunderground v.1.15,2013-06-25 14:40:00,
2013-06-25 09:45:00,74.8,68.9,29.82,WSW,238,0.0,8.0,82,0.00,,,0.04,Wunderground v.1.15,2013-06-25 14:45:00,
2013-06-25 09:50:00,74.9,69.0,29.82,WSW,242,0.0,8.0,82,0.00,,,0.04,Wunderground v.1.15,2013-06-25 14:50:00,
2013-06-25 09:55:00,75.1,69.2,29.82,West,275,0.0,8.0,82,0.00,,,0.04,Wunderground v.1.15,2013-06-25 14:55:00,
2013-06-25 10:00:00,75.2,69.0,29.81,WSW,258,0.0,8.0,81,0.00,,,0.04,Wunderground v.1.15,2013-06-25 15:00:00,
2013-06-25 10:05:00,75.3,68.7,29.81,West,272,0.0,8.0,80,0.00,,,0.04,Wunderground v.1.15,2013-06-25 15:05:00,
2013-06-25 10:10:00,75.5,68.9,29.81,West,280,0.0,8.0,80,0.00,,,0.04,Wunderground v.1.15,2013-06-25 15:10:00,
2013-06-25 10:15:00,75.6,68.6,29.81,SW,215,0.0,8.0,79,0.00,,,0.04,Wunderground v.1.15,2013-06-25 15:15:00,
2013-06-25 10:20:00,76.0,69.4,29.81,West,262,0.0,8.0,80,0.00,,,0.04,Wunderground v.1.15,2013-06-25 15:20:00,
2013-06-25 10:25:00,76.2,69.2,29.81,WSW,246,0.0,8.0,79,0.00,,,0.04,Wunderground v.1.15,2013-06-25 15:25:00,
2013-06-25 10:30:00,76.2,69.2,29.81,WSW,237,0.0,8.0,79,0.00,,,0.04,Wunderground v.1.15,2013-06-25 15:30:00,
2013-06-25 10:40:00,77.1,70.1,29.81,SW,222,0.0,8.0,79,0.00,,,0.04,Wunderground v.1.15,2013-06-25 15:40:00,
2013-06-25 10:45:00,77.2,69.8,29.81,WSW,248,0.0,8.0,78,0.00,,,0.04,Wunderground v.1.15,2013-06-25 15:45:00,
2013-06-25 10:55:00,77.3,69.1,29.81,WNW,300,0.0,8.0,76,0.00,,,0.04,Wunderground v.1.15,2013-06-25 15:55:00,
2013-06-25 11:00:00,77.1,68.9,29.81,SW,223,0.0,8.0,76,0.00,,,0.04,Wunderground v.1.15,2013-06-25 16:00:00,
2013-06-25 11:05:00,77.5,69.7,29.81,WNW,295,0.0,8.0,77,0.00,,,0.04,Wunderground v.1.15,2013-06-25 16:05:00,
2013-06-25 11:15:00,77.6,69.0,29.81,WSW,238,0.0,8.0,75,0.00,,,0.04,Wunderground v.1.15,2013-06-25 16:15:00,
2013-06-25 11:20:00,77.8,69.6,29.80,WNW,285,0.0,8.0,76,0.00,,,0.04,Wunderground v.1.15,2013-06-25 16:20:00,
2013-06-25 11:30:00,78.0,69.4,29.81,West,271,0.0,8.0,75,0.00,,,0.04,Wunderground v.1.15,2013-06-25 16:30:00,
2013-06-25 11:35:00,78.2,69.2,29.81,SW,234,0.0,8.0,74,0.00,,,0.04,Wunderground v.1.15,2013-06-25 16:35:00,
2013-06-25 11:40:00,78.0,69.0,29.81,WSW,238,0.0,8.0,74,0.00,,,0.04,Wunderground v.1.15,2013-06-25 16:40:00,
2013-06-25 11:45:00,78.1,69.1,29.81,SW,235,0.0,8.0,74,0.00,,,0.04,Wunderground v.1.15,2013-06-25 16:45:00,
2013-06-25 11:50:00,78.2,69.2,29.80,WNW,296,0.0,8.0,74,0.00,,,0.04,Wunderground v.1.15,2013-06-25 16:50:00,
2013-06-25 11:55:00,78.3,68.9,29.80,West,275,0.0,8.0,73,0.00,,,0.04,Wunderground v.1.15,2013-06-25 16:55:00,
2013-06-25 12:00:00,78.5,69.1,29.80,SW,218,0.0,8.0,73,0.00,,,0.04,Wunderground v.1.15,2013-06-25 17:00:00,
2013-06-25 12:05:00,78.5,69.5,29.80,SSW,195,0.0,8.0,74,0.00,,,0.04,Wunderground v.1.15,2013-06-25 17:05:00,
2013-06-25 12:10:00,78.8,69.4,29.79,WSW,253,0.0,8.0,73,0.00,,,0.04,Wunderground v.1.15,2013-06-25 17:10:00,
2013-06-25 12:15:00,78.9,69.5,29.79,South,184,0.0,8.0,73,0.00,,,0.04,Wunderground v.1.15,2013-06-25 17:15:00,
2013-06-25 12:20:00,79.0,69.6,29.79,SSE,154,0.0,8.0,73,0.00,,,0.04,Wunderground v.1.15,2013-06-25 17:20:00,
2013-06-25 12:25:00,79.4,70.0,29.78,South,190,0.0,8.0,73,0.00,,,0.04,Wunderground v.1.15,2013-06-25 17:25:00,
2013-06-25 12:30:00,79.7,69.9,29.78,WSW,246,0.0,8.0,72,0.00,,,0.04,Wunderground v.1.15,2013-06-25 17:30:00,
2013-06-25 12:35:00,79.8,70.0,29.79,South,177,0.0,8.0,72,0.00,,,0.04,Wunderground v.1.15,2013-06-25 17:35:00,
2013-06-25 12:40:00,80.0,70.2,29.79,South,190,0.0,8.0,72,0.00,,,0.04,Wunderground v.1.15,2013-06-25 17:40:00,
2013-06-25 12:45:00,80.5,70.6,29.79,SW,221,0.0,8.0,72,0.00,,,0.04,Wunderground v.1.15,2013-06-25 17:45:00,
2013-06-25 12:50:00,79.8,70.0,29.79,WSW,246,0.0,8.0,72,0.00,,,0.04,Wunderground v.1.15,2013-06-25 17:50:00,
2013-06-25 12:55:00,79.4,70.0,29.79,WNW,292,0.0,8.0,73,0.00,,,0.04,Wunderground v.1.15,2013-06-25 17:55:00,
2013-06-25 13:00:00,79.6,70.6,29.79,West,269,0.0,8.0,74,0.00,,,0.04,Wunderground v.1.15,2013-06-25 18:00:00,
2013-06-25 13:05:00,79.7,69.9,29.79,SSW,199,0.0,8.0,72,0.00,,,0.04,Wunderground v.1.15,2013-06-25 18:05:00,
2013-06-25 13:10:00,79.8,70.4,29.79,West,268,0.0,8.0,73,0.00,,,0.04,Wunderground v.1.15,2013-06-25 18:10:00,
2013-06-25 13:15:00,80.1,70.7,29.79,West,265,0.0,8.0,73,0.00,,,0.04,Wunderground v.1.15,2013-06-25 18:15:00,
2013-06-25 13:20:00,80.2,70.4,29.79,South,174,0.0,8.0,72,0.00,,,0.04,Wunderground v.1.15,2013-06-25 18:20:00,
2013-06-25 13:25:00,80.5,70.6,29.79,SSW,195,0.0,8.0,72,0.00,,,0.04,Wunderground v.1.15,2013-06-25 18:25:00,
2013-06-25 13:30:00,80.6,70.7,29.79,SW,217,0.0,8.0,72,0.00,,,0.04,Wunderground v.1.15,2013-06-25 18:30:00,
2013-06-25 13:40:00,79.7,70.3,29.78,South,178,0.0,8.0,73,0.00,,,0.04,Wunderground v.1.15,2013-06-25 18:40:00,
2013-06-25 13:45:00,79.4,70.4,29.79,South,178,0.0,8.0,74,0.00,,,0.04,Wunderground v.1.15,2013-06-25 18:45:00,
2013-06-25 13:50:00,79.5,70.5,29.78,SW,215,0.0,8.0,74,0.00,,,0.04,Wunderground v.1.15,2013-06-25 18:50:00,
2013-06-25 13:55:00,79.9,70.9,29.78,South,169,0.0,8.0,74,0.00,,,0.04,Wunderground v.1.15,2013-06-25 18:55:00,
2013-06-25 14:00:00,80.1,70.7,29.79,SE,137,0.0,8.0,73,0.00,,,0.04,Wunderground v.1.15,2013-06-25 19:00:00,
2013-06-25 14:10:00,80.7,71.2,29.79,SSW,200,0.0,8.0,73,0.00,,,0.04,Wunderground v.1.15,2013-06-25 19:10:00,
2013-06-25 14:15:00,80.9,71.0,29.79,South,183,0.0,8.0,72,0.00,,,0.04,Wunderground v.1.15,2013-06-25 19:15:00,
2013-06-25 14:20:00,80.8,70.5,29.79,South,187,0.0,8.0,71,0.00,,,0.04,Wunderground v.1.15,2013-06-25 19:20:00,
2013-06-25 14:25:00,80.3,70.0,29.80,SW,221,0.0,8.0,71,0.00,,,0.04,Wunderground v.1.15,2013-06-25 19:25:00,
2013-06-25 14:35:00,78.4,69.0,29.80,SSW,209,0.0,8.0,73,0.00,,,0.04,Wunderground v.1.15,2013-06-25 19:35:00,
2013-06-25 14:40:00,79.0,70.0,29.80,SE,142,0.0,8.0,74,0.00,,,0.04,Wunderground v.1.15,2013-06-25 19:40:00,
2013-06-25 14:45:00,79.0,69.6,29.80,South,189,0.0,8.0,73,0.00,,,0.04,Wunderground v.1.15,2013-06-25 19:45:00,
2013-06-25 14:50:00,79.2,69.4,29.80,SSW,196,0.0,8.0,72,0.00,,,0.04,Wunderground v.1.15,2013-06-25 19:50:00,
2013-06-25 14:55:00,79.3,69.1,29.80,SSW,212,0.0,8.0,71,0.00,,,0.04,Wunderground v.1.15,2013-06-25 19:55:00,
2013-06-25 15:00:00,79.0,68.0,29.80,South,170,0.0,8.0,69,0.00,,,0.04,Wunderground v.1.15,2013-06-25 20:00:00,
2013-06-25 15:05:00,79.1,68.5,29.80,SSW,211,0.0,8.0,70,0.00,,,0.04,Wunderground v.1.15,2013-06-25 20:05:00,
2013-06-25 15:10:00,79.3,69.1,29.80,SSE,152,0.0,8.0,71,0.00,,,0.04,Wunderground v.1.15,2013-06-25 20:10:00,
2013-06-25 15:15:00,79.6,69.0,29.80,SSE,165,0.0,8.0,70,0.00,,,0.04,Wunderground v.1.15,2013-06-25 20:15:00,
2013-06-25 15:20:00,79.8,69.6,29.79,SW,229,0.0,8.0,71,0.00,,,0.04,Wunderground v.1.15,2013-06-25 20:20:00,
2013-06-25 15:25:00,80.1,69.0,29.79,SSW,205,0.0,8.0,69,0.00,,,0.04,Wunderground v.1.15,2013-06-25 20:25:00,
2013-06-25 15:30:00,80.3,68.8,29.79,SW,226,0.0,8.0,68,0.00,,,0.04,Wunderground v.1.15,2013-06-25 20:30:00,
2013-06-25 15:40:00,80.7,69.2,29.79,WSW,246,0.0,8.0,68,0.00,,,0.04,Wunderground v.1.15,2013-06-25 20:40:00,
2013-06-25 15:45:00,80.6,69.1,29.79,SW,214,0.0,8.0,68,0.00,,,0.04,Wunderground v.1.15,2013-06-25 20:45:00,
2013-06-25 15:50:00,80.6,69.5,29.79,SW,235,0.0,8.0,69,0.00,,,0.04,Wunderground v.1.15,2013-06-25 20:50:00,
2013-06-25 15:55:00,80.5,69.4,29.79,SSW,206,0.0,8.0,69,0.00,,,0.04,Wunderground v.1.15,2013-06-25 20:55:00,
2013-06-25 16:00:00,80.6,69.1,29.79,SW,217,0.0,8.0,68,0.00,,,0.04,Wunderground v.1.15,2013-06-25 21:00:00,
2013-06-25 16:05:00,80.2,68.7,29.79,SW,216,0.0,8.0,68,0.00,,,0.04,Wunderground v.1.15,2013-06-25 21:05:00,
2013-06-25 16:15:00,80.0,68.9,29.79,South,175,0.0,8.0,69,0.00,,,0.04,Wunderground v.1.15,2013-06-25 21:15:00,
2013-06-25 16:20:00,79.7,69.0,29.78,WSW,238,0.0,8.0,70,0.00,,,0.04,Wunderground v.1.15,2013-06-25 21:20:00,
2013-06-25 16:25:00,79.6,69.0,29.78,SSW,200,0.0,8.0,70,0.00,,,0.04,Wunderground v.1.15,2013-06-25 21:25:00,
2013-06-25 16:30:00,79.9,69.7,29.78,WSW,254,0.0,8.0,71,0.00,,,0.04,Wunderground v.1.15,2013-06-25 21:30:00,
2013-06-25 16:35:00,80.1,69.0,29.78,SW,218,0.0,8.0,69,0.00,,,0.04,Wunderground v.1.15,2013-06-25 21:35:00,
2013-06-25 16:40:00,79.9,68.8,29.78,SSW,200,0.0,8.0,69,0.00,,,0.04,Wunderground v.1.15,2013-06-25 21:40:00,
2013-06-25 16:45:00,80.3,69.6,29.78,SW,225,0.0,8.0,70,0.00,,,0.04,Wunderground v.1.15,2013-06-25 21:45:00,
2013-06-25 16:50:00,80.5,69.8,29.78,SSE,164,0.0,8.0,70,0.00,,,0.04,Wunderground v.1.15,2013-06-25 21:50:00,
2013-06-25 16:55:00,80.4,69.3,29.78,SW,218,0.0,8.0,69,0.00,,,0.04,Wunderground v.1.15,2013-06-25 21:55:00,
2013-06-25 17:00:00,80.2,69.5,29.78,SW,215,0.0,8.0,70,0.00,,,0.04,Wunderground v.1.15,2013-06-25 22:00:00,
2013-06-25 17:05:00,79.9,68.8,29.78,South,190,0.0,8.0,69,0.00,,,0.04,Wunderground v.1.15,2013-06-25 22:05:00,
2013-06-25 17:10:00,79.5,68.4,29.78,SW,225,0.0,8.0,69,0.00,,,0.04,Wunderground v.1.15,2013-06-25 22:10:00,
2013-06-25 17:15:00,79.3,68.7,29.77,SW,215,0.0,8.0,70,0.00,,,0.04,Wunderground v.1.15,2013-06-25 22:15:00,
2013-06-25 17:20:00,79.4,68.8,29.77,WSW,237,0.0,8.0,70,0.00,,,0.04,Wunderground v.1.15,2013-06-25 22:20:00,
2013-06-25 17:30:00,79.6,69.4,29.77,SSW,200,0.0,8.0,71,0.00,,,0.04,Wunderground v.1.15,2013-06-25 22:30:00,
2013-06-25 17:35:00,79.6,69.4,29.76,WSW,242,0.0,8.0,71,0.00,,,0.04,Wunderground v.1.15,2013-06-25 22:35:00,
2013-06-25 17:40:00,79.6,69.4,29.77,SW,231,0.0,8.0,71,0.00,,,0.04,Wunderground v.1.15,2013-06-25 22:40:00,
2013-06-25 17:50:00,79.2,69.0,29.76,South,190,0.0,8.0,71,0.00,,,0.04,Wunderground v.1.15,2013-06-25 22:50:00,
2013-06-25 18:00:00,78.6,68.8,29.76,SSW,200,0.0,8.0,72,0.00,,,0.04,Wunderground v.1.15,2013-06-25 23:00:00,
2013-06-25 18:05:00,78.5,68.7,29.76,SSW,205,0.0,8.0,72,0.00,,,0.04,Wunderground v.1.15,2013-06-25 23:05:00,
2013-06-25 18:10:00,78.4,69.0,29.76,WSW,237,0.0,8.0,73,0.00,,,0.04,Wunderground v.1.15,2013-06-25 23:10:00,
2013-06-25 18:15:00,78.4,69.4,29.76,South,180,0.0,8.0,74,0.00,,,0.04,Wunderground v.1.15,2013-06-25 23:15:00,
2013-06-25 18:20:00,78.4,69.4,29.76,SSW,200,0.0,8.0,74,0.00,,,0.04,Wunderground v.1.15,2013-06-25 23:20:00,
2013-06-25 18:25:00,78.5,69.5,29.76,SSW,206,0.0,8.0,74,0.00,,,0.04,Wunderground v.1.15,2013-06-25 23:25:00,
2013-06-25 18:30:00,78.4,69.8,29.76,SSW,194,0.0,8.0,75,0.00,,,0.04,Wunderground v.1.15,2013-06-25 23:30:00,
2013-06-25 18:35:00,78.3,69.3,29.76,South,182,0.0,8.0,74,0.00,,,0.04,Wunderground v.1.15,2013-06-25 23:35:00,
2013-06-25 18:45:00,78.4,69.8,29.76,SSW,198,0.0,8.0,75,0.00,,,0.04,Wunderground v.1.15,2013-06-25 23:45:00,
2013-06-25 18:55:00,78.2,70.0,29.76,WSW,245,0.0,8.0,76,0.00,,,0.04,Wunderground v.1.15,2013-06-25 23:55:00,
2013-06-25 19:05:00,77.9,69.7,29.76,SSW,197,0.0,8.0,76,0.00,,,0.04,Wunderground v.1.15,2013-06-26 00:05:00,
2013-06-25 19:10:00,77.8,69.6,29.76,SSW,200,0.0,8.0,76,0.00,,,0.04,Wunderground v.1.15,2013-06-26 00:10:00,
2013-06-25 19:15:00,77.6,69.8,29.76,South,173,0.0,8.0,77,0.00,,,0.04,Wunderground v.1.15,2013-06-26 00:15:00,
2013-06-25 19:20:00,77.5,69.7,29.77,SSE,162,0.0,8.0,77,0.00,,,0.04,Wunderground v.1.15,2013-06-26 00:20:00,
2013-06-25 19:30:00,77.1,69.7,29.76,South,176,0.0,8.0,78,0.00,,,0.04,Wunderground v.1.15,2013-06-26 00:30:00,
2013-06-25 19:35:00,77.0,70.0,29.76,SSE,161,0.0,8.0,79,0.00,,,0.04,Wunderground v.1.15,2013-06-26 00:35:00,
2013-06-25 19:45:00,76.5,69.5,29.76,South,175,0.0,8.0,79,0.00,,,0.04,Wunderground v.1.15,2013-06-26 00:45:00,
2013-06-25 19:50:00,76.3,69.3,29.76,SW,221,0.0,8.0,79,0.00,,,0.04,Wunderground v.1.15,2013-06-26 00:50:00,
2013-06-25 19:55:00,76.1,69.5,29.76,SW,221,0.0,8.0,80,0.00,,,0.04,Wunderground v.1.15,2013-06-26 00:55:00,
2013-06-25 20:00:00,76.0,69.4,29.76,SSW,202,0.0,8.0,80,0.00,,,0.04,Wunderground v.1.15,2013-06-26 01:00:00,
2013-06-25 20:05:00,75.9,69.3,29.77,SW,233,0.0,8.0,80,0.00,,,0.04,Wunderground v.1.15,2013-06-26 01:05:00,
2013-06-25 20:10:00,75.9,69.3,29.77,WSW,249,0.0,8.0,80,0.00,,,0.04,Wunderground v.1.15,2013-06-26 01:10:00,
2013-06-25 20:20:00,75.7,69.1,29.77,SW,232,0.0,8.0,80,0.00,,,0.04,Wunderground v.1.15,2013-06-26 01:20:00,
2013-06-25 20:25:00,75.6,69.0,29.77,SSW,205,0.0,8.0,80,0.00,,,0.04,Wunderground v.1.15,2013-06-26 01:25:00,
2013-06-25 20:30:00,75.4,69.2,29.77,SSW,193,0.0,8.0,81,0.00,,,0.04,Wunderground v.1.15,2013-06-26 01:30:00,
2013-06-25 20:35:00,75.1,68.9,29.77,WSW,250,0.0,8.0,81,0.00,,,0.04,Wunderground v.1.15,2013-06-26 01:35:00,
2013-06-25 20:40:00,75.0,68.8,29.76,WSW,242,0.0,8.0,81,0.00,,,0.04,Wunderground v.1.15,2013-06-26 01:40:00,
2013-06-25 20:45:00,74.9,69.0,29.76,WSW,242,0.0,8.0,82,0.00,,,0.04,Wunderground v.1.15,2013-06-26 01:45:00,
2013-06-25 20:50:00,74.7,68.8,29.76,WSW,242,0.0,8.0,82,0.00,,,0.04,Wunderground v.1.15,2013-06-26 01:50:00,
2013-06-25 20:55:00,74.4,68.9,29.76,WSW,242,0.0,8.0,83,0.00,,,0.04,Wunderground v.1.15,2013-06-26 01:55:00,
2013-06-25 21:00:00,74.0,68.5,29.76,WSW,242,0.0,8.0,83,0.00,,,0.04,Wunderground v.1.15,2013-06-26 02:00:00,
2013-06-25 21:05:00,73.6,68.5,29.76,WSW,242,0.0,8.0,84,0.00,,,0.04,Wunderground v.1.15,2013-06-26 02:05:00,
2013-06-25 21:10:00,73.2,68.1,29.76,WSW,242,0.0,8.0,84,0.00,,,0.04,Wunderground v.1.15,2013-06-26 02:10:00,
2013-06-25 21:15:00,72.8,68.0,29.76,WSW,242,0.0,8.0,85,0.00,,,0.04,Wunderground v.1.15,2013-06-26 02:15:00,
2013-06-25 21:20:00,72.5,68.1,29.76,South,188,0.0,8.0,86,0.00,,,0.04,Wunderground v.1.15,2013-06-26 02:20:00,
2013-06-25 21:25:00,72.2,67.8,29.76,South,188,0.0,8.0,86,0.00,,,0.04,Wunderground v.1.15,2013-06-26 02:25:00,
2013-06-25 21:30:00,72.0,67.9,29.77,SW,216,0.0,8.0,87,0.00,,,0.04,Wunderground v.1.15,2013-06-26 02:30:00,
2013-06-25 21:35:00,71.8,67.7,29.76,SW,223,0.0,8.0,87,0.00,,,0.04,Wunderground v.1.15,2013-06-26 02:35:00,
2013-06-25 21:40:00,71.7,68.0,29.76,SW,223,0.0,8.0,88,0.00,,,0.04,Wunderground v.1.15,2013-06-26 02:40:00,
2013-06-25 21:45:00,71.8,68.1,29.76,SW,223,0.0,8.0,88,0.00,,,0.04,Wunderground v.1.15,2013-06-26 02:45:00,
2013-06-25 21:50:00,71.7,68.0,29.76,SW,223,0.0,8.0,88,0.00,,,0.04,Wunderground v.1.15,2013-06-26 02:50:00,
2013-06-25 21:55:00,71.4,67.3,29.76,SW,223,0.0,8.0,87,0.00,,,0.04,Wunderground v.1.15,2013-06-26 02:55:00,
2013-06-25 22:05:00,70.7,67.0,29.76,SW,223,0.0,8.0,88,0.00,,,0.04,Wunderground v.1.15,2013-06-26 03:05:00,
2013-06-25 22:10:00,70.5,67.1,29.76,SW,223,0.0,8.0,89,0.00,,,0.04,Wunderground v.1.15,2013-06-26 03:10:00,
2013-06-25 22:15:00,70.4,67.0,29.76,SW,223,0.0,8.0,89,0.00,,,0.04,Wunderground v.1.15,2013-06-26 03:15:00,
2013-06-25 22:20:00,70.2,66.8,29.76,SW,223,0.0,8.0,89,0.00,,,0.04,Wunderground v.1.15,2013-06-26 03:20:00,
2013-06-25 22:25:00,69.9,66.8,29.76,SW,223,0.0,8.0,90,0.00,,,0.04,Wunderground v.1.15,2013-06-26 03:25:00,
2013-06-25 22:35:00,69.7,66.6,29.76,South,171,0.0,8.0,90,0.00,,,0.04,Wunderground v.1.15,2013-06-26 03:35:00,
2013-06-25 22:40:00,69.5,66.4,29.76,South,171,0.0,8.0,90,0.00,,,0.04,Wunderground v.1.15,2013-06-26 03:40:00,
2013-06-25 22:45:00,69.2,66.1,29.76,South,171,0.0,8.0,90,0.00,,,0.04,Wunderground v.1.15,2013-06-26 03:45:00,
2013-06-25 22:50:00,69.0,66.3,29.76,South,171,0.0,8.0,91,0.00,,,0.04,Wunderground v.1.15,2013-06-26 03:50:00,
2013-06-25 22:55:00,69.0,66.3,29.76,South,171,0.0,8.0,91,0.00,,,0.04,Wunderground v.1.15,2013-06-26 03:55:00,
2013-06-25 23:00:00,68.7,66.0,29.76,South,171,0.0,8.0,91,0.00,,,0.04,Wunderground v.1.15,2013-06-26 04:00:00,
2013-06-25 23:05:00,68.6,65.9,29.76,South,171,0.0,8.0,91,0.00,,,0.04,Wunderground v.1.15,2013-06-26 04:05:00,
2013-06-25 23:10:00,68.4,65.7,29.75,South,171,0.0,8.0,91,0.00,,,0.04,Wunderground v.1.15,2013-06-26 04:10:00,
2013-06-25 23:15:00,68.1,65.4,29.75,South,171,0.0,8.0,91,0.00,,,0.04,Wunderground v.1.15,2013-06-26 04:15:00,
2013-06-25 23:20:00,68.1,65.7,29.76,South,171,0.0,8.0,92,0.00,,,0.04,Wunderground v.1.15,2013-06-26 04:20:00,
2013-06-25 23:25:00,68.1,65.7,29.76,South,171,0.0,8.0,92,0.00,,,0.04,Wunderground v.1.15,2013-06-26 04:25:00,
2013-06-25 23:30:00,67.9,65.2,29.76,South,171,0.0,8.0,91,0.00,,,0.04,Wunderground v.1.15,2013-06-26 04:30:00,
2013-06-25 23:35:00,67.5,64.8,29.76,South,171,0.0,8.0,91,0.00,,,0.04,Wunderground v.1.15,2013-06-26 04:35:00,
2013-06-25 23:40:00,67.4,65.0,29.76,South,171,0.0,8.0,92,0.00,,,0.04,Wunderground v.1.15,2013-06-26 04:40:00,
2013-06-25 23:45:00,67.5,65.1,29.76,South,171,0.0,8.0,92,0.00,,,0.04,Wunderground v.1.15,2013-06-26 04:45:00,
2013-06-25 23:50:00,67.3,64.9,29.75,South,171,0.0,8.0,92,0.00,,,0.04,Wunderground v.1.15,2013-06-26 04:50:00,
2013-06-25 23:55:00,67.2,64.8,29.76,South,171,0.0,8.0,92,0.00,,,0.04,Wunderground v.1.15,2013-06-26 04:55:00,